GW4157 Weather Reports


time (UTC)temp
F
wind
direction
speed
knots
gust
knots
rain 1hr
in
rain 24hr
in
rain mn
in
humidity
%
barometer
mb
20260507211547 53 281 3.5 7.8 0.00 0.00 0.00 48 1008.5
20260507210054 53 299 2.6 7.8 0.00 0.00 0.00 46 1008.5
20260507204543 54 275 2.6 9.6 0.00 0.00 0.00 45 1008.3
20260507203037 54 263 4.3 10.4 0.00 0.00 0.00 47 1008.5
20260507201535 55 243 2.6 7.0 0.00 0.00 0.00 46 1008.5
20260507200050 55 194 3.5 7.8 0.00 0.00 0.00 49 1008.6
20260507194548 54 243 3.5 7.0 0.00 0.00 0.00 46 1008.7
20260507193037 54 271 3.5 7.8 0.00 0.00 0.00 47 1008.9
20260507191539 53 275 2.6 10.4 0.00 0.00 0.00 47 1008.9
20260507190045 54 242 3.5 8.7 0.00 0.00 0.00 45 1009.0
20260507184543 55 197 2.6 7.8 0.00 0.00 0.00 49 1009.1
20260507183043 54 188 1.7 6.1 0.00 0.00 0.00 45 1009.2
20260507181535 54 206 1.7 6.1 0.00 0.00 0.00 48 1009.3
20260507180036 54 269 1.7 11.3 0.00 0.00 0.00 45 1009.1
20260507174536 55 265 1.7 6.1 0.00 0.00 0.00 46 1009.4
20260507173046 54 213 3.5 6.1 0.00 0.00 0.00 42 1009.6
20260507171534 54 188 3.5 7.8 0.00 0.00 0.00 44 1009.6
20260507170036 54 255 3.5 10.4 0.00 0.00 0.00 46 1009.8
20260507164546 53 276 2.6 7.8 0.00 0.00 0.00 44 1010.1
20260507163035 52 290 4.3 10.4 0.00 0.00 0.00 45 1010.3
20260507161549 52 287 3.5 10.4 0.00 0.00 0.00 49 1010.3
20260507160036 52 0 0.9 7.0 0.00 0.00 0.00 47 1010.4
20260507154536 53 40 1.7 10.4 0.00 0.00 0.00 48 1010.5
20260507153040 52 0 3.5 9.6 0.00 0.00 0.00 47 1010.6
20260507151537 50 265 2.6 9.6 0.00 0.00 0.00 48 1010.9
20260507150044 51 236 4.3 10.4 0.00 0.00 0.00 50 1011.0
20260507144539 51 250 3.5 11.3 0.00 0.00 0.00 54 1011.1
20260507143040 51 201 3.5 7.8 0.00 0.00 0.00 54 1011.1
20260507141543 50 211 4.3 9.6 0.00 0.00 0.00 55 1011.3
20260507140043 50 175 4.3 8.7 0.00 0.00 0.00 61 1011.5
20260507134534 49 175 3.5 10.4 0.00 0.01 0.00 60 1011.6
20260507133035 48 276 1.7 7.0 0.00 0.01 0.00 67 1011.7
20260507131539 48 196 2.6 7.0 0.00 0.01 0.00 65 1011.7
20260507130040 47 238 2.6 6.1 0.00 0.01 0.00 66 1011.7
20260507124545 46 203 1.7 4.3 0.00 0.05 0.00 69 1011.6
20260507123036 45 179 2.6 5.2 0.00 0.05 0.00 70 1011.7
20260507121548 44 174 1.7 3.5 0.00 0.05 0.00 72 1011.8
20260507120035 41 136 0.0 1.7 0.00 0.05 0.00 80 1011.7
20260507114556 38 0 0.0 0.0 0.00 0.11 0.00 89 1011.7
20260507113059 37 0 0.0 0.0 0.00 0.11 0.00 91 1011.7
20260507111541 34 0 0.0 0.0 0.00 0.11 0.00 96 1011.7
20260507110036 31 0 0.0 0.0 0.00 0.11 0.00 95 1011.7
20260507104541 31 0 0.0 1.7 0.00 0.25 0.00 94 1011.5
20260507103049 31 286 0.0 0.9 0.00 0.25 0.00 94 1011.3
20260507101538 31 0 0.0 0.0 0.00 0.25 0.00 94 1011.3
20260507100037 31 0 0.0 0.9 0.00 0.25 0.00 93 1011.1
20260507094538 31 0 0.0 1.7 0.00 0.38 0.00 93 1011.0
20260507093036 31 0 0.0 0.0 0.00 0.38 0.00 93 1011.3
20260507091543 32 0 0.0 0.0 0.00 0.38 0.00 93 1011.3
20260507090038 32 0 0.0 0.0 0.00 0.38 0.00 92 1011.3
20260507084544 32 0 0.0 0.0 0.00 0.45 0.00 92 1011.3
20260507083036 33 0 0.0 0.0 0.00 0.45 0.00 91 1011.4
20260507081540 33 0 0.0 0.0 0.00 0.45 0.00 90 1011.4
20260507080043 33 0 0.0 0.0 0.00 0.45 0.00 90 1011.6
20260507074538 34 0 0.0 0.0 0.00 0.52 0.00 89 1011.5
20260507073037 35 0 0.0 0.0 0.00 0.52 0.00 88 1011.5
20260507071535 35 0 0.0 0.0 0.00 0.52 0.00 87 1011.4
20260507070035 36 0 0.0 0.0 0.00 0.52 0.00 86 1011.6
20260507064537 37 0 0.0 0.0 0.00 0.60 0.00 83 1011.6
20260507063038 38 0 0.0 0.0 0.00 0.60 0.00 82 1011.7
20260507061539 39 0 0.0 0.0 0.00 0.60 0.00 79 1011.7
20260507060037 40 0 0.0 0.0 0.00 0.60 0.00 77 1011.8
20260507054535 41 0 0.0 1.7 0.00 0.63 0.00 75 1011.9
20260507053041 41 0 0.0 1.7 0.00 0.63 0.00 76 1012.2
20260507051537 41 283 0.0 0.9 0.00 0.63 0.00 76 1012.4
20260507050035 41 283 0.0 1.7 0.00 0.63 0.00 75 1012.2
20260507044536 42 0 0.9 1.7 0.00 0.63 0.00 75 1012.4
20260507043045 42 0 0.9 2.6 0.00 0.63 0.00 73 1012.5
20260507041536 42 0 0.0 2.6 0.00 0.63 0.00 73 1012.6
20260507040040 42 281 0.0 1.7 0.00 0.63 0.00 72 1012.4
20260507034537 42 248 0.0 1.7 0.00 0.64 0.63 72 1012.3
20260507033038 43 248 0.9 2.6 0.00 0.64 0.63 71 1012.4
20260507031539 43 234 0.0 1.7 0.00 0.64 0.63 72 1012.4
20260507030036 43 300 1.7 2.6 0.00 0.64 0.63 71 1012.4
20260507024535 43 0 0.0 1.7 0.00 0.65 0.63 73 1012.1
20260507023037 43 0 0.0 0.9 0.00 0.65 0.63 73 1011.9
20260507021539 43 0 0.0 2.6 0.00 0.65 0.63 73 1011.7
20260507020048 43 300 0.0 1.7 0.00 0.65 0.63 73 1011.8
20260507014540 44 0 0.0 0.0 0.00 0.65 0.63 70 1012.0
20260507013035 44 267 0.0 0.0 0.00 0.65 0.63 70 1011.9
20260507011544 44 0 0.0 1.7 0.00 0.65 0.63 63 1011.8
20260507010037 45 0 0.0 1.7 0.00 0.65 0.63 65 1012.0
20260507004535 45 263 0.0 3.5 0.00 0.65 0.63 61 1012.0
20260507003036 45 0 0.0 4.3 0.00 0.65 0.63 58 1012.3
20260507001604 45 294 1.7 3.5 0.00 0.65 0.63 58 1011.8
20260507000041 46 299 0.9 7.0 0.00 0.65 0.63 58 1011.9
20260506234534 46 309 2.6 7.0 0.00 0.65 0.63 58 1011.6
20260506233036 47 269 3.5 7.8 0.00 0.65 0.63 61 1011.4
20260506231536 47 294 0.9 7.0 0.00 0.65 0.63 61 1011.1
20260506230051 47 278 2.6 7.8 0.00 0.65 0.63 61 1010.8
20260506224535 48 307 3.5 7.0 0.00 0.79 0.63 59 1010.7
20260506223035 48 326 2.6 7.0 0.00 0.79 0.63 62 1010.7
20260506221535 48 303 0.9 7.0 0.00 0.79 0.63 65 1010.5
20260506220038 49 313 3.5 8.7 0.00 0.79 0.63 63 1010.1
20260506214536 49 315 4.3 9.6 0.00 0.79 0.63 65 1010.0
20260506213035 50 294 2.6 7.0 0.00 0.79 0.63 71 1009.8